Deering, AK

8:13 PM AKDT on August 23, 2016 (GMT -0800)
Deering (New)

Weather History for PADE - October, 2012

Change the Weather History Date:

Friday, October 5, 2012

  Actual Average (PAOT) Record (PAOT)
Temperature  
Mean Temperature 42 °F 31 °F  
Max Temperature 46 °F 36 °F 52 °F (1942)
Min Temperature 39 °F 27 °F 9 °F (1956)
Degree Days  
Heating Degree Days 22 34  
Month to date heating degree days 162  
Since 1 July heating degree days 1580  
Cooling Degree Days 0    
Month to date cooling degree days  
Year to date cooling degree days  
Moisture  
Dew Point 36 °F    
Average Humidity 78    
Maximum Humidity 86    
Minimum Humidity 68    
Precipitation  
Precipitation 0.00 in 0.04 in 0.52 in (1985)
Month to date precipitation 0.22  
Year to date precipitation 8.68  
Snow  
Snow 0.00 in 0.20 in 1.30 in (1984)
Month to date snowfall 0.7  
Since 1 July snowfall 1.5  
Since 1 September snowfall 1.5  
Snow Depth -    
Sea Level Pressure  
Sea Level Pressure 29.60 in    
Wind  
Wind Speed 21 mph (SE)    
Max Wind Speed 34 mph    
Max Gust Speed 46 mph    
Visibility 10 miles    
Events      
T = Trace of Precipitation, MM = Missing Value Source: NWS Daily Summary

Daily Weather History Graph

Daily Weather History Graph

Search for Another Location

Airport or City:

Trip Planner

Search our weather history database for the weather conditions in past years. The results will help you decide how hot, cold, wet, or windy it might be!

Date:

Astronomy

Oct. 05, 2012 Rise Set
Actual Time 9:17 AM AKDT 7:59 PM AKDT
Civil Twilight 8:25 AM AKDT 8:50 PM AKDT
Nautical Twilight 7:25 AM AKDT 9:50 PM AKDT
Astronomical Twilight 6:21 AM AKDT 10:54 PM AKDT
Moon 9:11 PM AKDT (10/5) 4:57 PM AKDT (10/5)
Length of Visible Light 12h 25m
Length of Day
10h 42m
Waning Gibbous, 73% of the Moon is Illuminated
Oct 5
Waning Gibbous
Oct 7
Last Quarter
Oct 15
New
Oct 21
First Quarter
Oct 29
Full

Hourly Weather History & Observations

Time (AKDT) Temp. Windchill Dew Point Humidity Pressure Visibility Wind Dir Wind Speed Gust Speed Precip Events Conditions
12:53 AM 39.9 °F 33.4 °F 36.0 °F 86% 29.67 in 10.0 mi SE 10.4 mph - N/A   Clear
1:53 AM 39.9 °F 32.9 °F 36.0 °F 86% 29.68 in 10.0 mi SSE 11.5 mph - 0.00 in   Mostly Cloudy
2:53 AM 39.9 °F 31.4 °F 36.0 °F 86% 29.67 in 10.0 mi ESE 16.1 mph - N/A   Clear
3:53 AM 41.0 °F 32.5 °F 36.0 °F 82% 29.67 in 10.0 mi ESE 17.3 mph - N/A   Clear
4:53 AM 41.0 °F 32.8 °F 35.1 °F 79% 29.65 in 10.0 mi SE 16.1 mph - N/A   Clear
5:53 AM 42.1 °F 32.3 °F 34.0 °F 73% 29.63 in 10.0 mi SE 24.2 mph 33.4 mph N/A   Clear
6:53 AM 43.0 °F 33.5 °F 34.0 °F 71% 29.63 in 10.0 mi ESE 24.2 mph 34.5 mph N/A   Scattered Clouds
7:53 AM 42.1 °F 31.7 °F 35.1 °F 76% 29.62 in 10.0 mi ESE 27.6 mph 35.7 mph N/A   Scattered Clouds
8:53 AM 43.0 °F 32.5 °F 35.1 °F 74% 29.60 in 10.0 mi SE 29.9 mph 40.3 mph N/A   Partly Cloudy
9:53 AM 42.1 °F 31.3 °F 35.1 °F 76% 29.57 in 10.0 mi ESE 29.9 mph 40.3 mph N/A   Overcast
10:53 AM 42.1 °F 31.0 °F 36.0 °F 79% 29.56 in 10.0 mi SE 32.2 mph 41.4 mph N/A   Scattered Clouds
11:03 AM 42.8 °F 32.5 °F 35.6 °F 76% 29.57 in 10.0 mi SE 28.8 mph 41.4 mph N/A   Mostly Cloudy
11:53 AM 42.1 °F 31.7 °F 36.0 °F 79% 29.58 in 10.0 mi ESE 27.6 mph 34.5 mph 0.00 in   Overcast
12:53 PM 45.0 °F 34.6 °F 36.0 °F 71% 29.56 in 10.0 mi SE 34.5 mph 42.6 mph N/A   Mostly Cloudy
1:53 PM 45.0 °F 34.6 °F 37.0 °F 74% 29.56 in 10.0 mi SE 34.5 mph 46.0 mph N/A   Scattered Clouds
2:53 PM 45.0 °F 35.1 °F 36.0 °F 71% 29.57 in 10.0 mi SE 31.1 mph 46.0 mph N/A   Partly Cloudy
3:53 PM 46.9 °F - 37.0 °F 68% 29.57 in 10.0 mi SE 32.2 mph 44.9 mph N/A   Mostly Cloudy
4:53 PM 45.0 °F 35.6 °F 37.0 °F 74% 29.56 in 10.0 mi SE 27.6 mph 44.9 mph N/A   Mostly Cloudy
5:53 PM 45.0 °F 35.8 °F 37.9 °F 76% 29.56 in 10.0 mi SE 26.5 mph 41.4 mph N/A   Mostly Cloudy
6:53 PM 44.1 °F 34.4 °F 37.0 °F 76% 29.57 in 10.0 mi SE 27.6 mph 34.5 mph N/A   Overcast
7:53 PM 43.0 °F 33.1 °F 37.0 °F 80% 29.57 in 10.0 mi SE 26.5 mph 36.8 mph N/A   Overcast
8:53 PM 43.0 °F 34.0 °F 37.9 °F 82% 29.58 in 10.0 mi SE 21.9 mph 28.8 mph N/A   Mostly Cloudy
9:14 PM 42.8 °F 33.5 °F 37.4 °F 81% 29.58 in 10.0 mi SE 23.0 mph 27.6 mph N/A   Overcast
9:37 PM 42.8 °F 33.5 °F 37.4 °F 81% 29.58 in 10.0 mi SE 23.0 mph 31.1 mph N/A   Scattered Clouds
9:53 PM 43.0 °F 33.8 °F 37.9 °F 82% 29.59 in 10.0 mi SE 23.0 mph 31.1 mph N/A   Clear
10:53 PM 42.1 °F 33.9 °F 37.0 °F 82% 29.60 in 10.0 mi SE 17.3 mph - N/A   Clear
11:53 PM 42.1 °F 33.3 °F 37.0 °F 82% 29.60 in 10.0 mi SE 19.6 mph - N/A   Partly Cloudy